| time (UTC) | temp F | wind direction | speed knots | gust knots | rain 1hr in | rain 24hr in | rain mn in | humidity % | barometer mb |
| 20260503194558 | 81 | 326 | 2.6 | 7.0 | 0.00 | 0.00 | 0.00 | 50 | 1008.6 |
| 20260503193055 | 79 | 350 | 0.0 | 6.1 | 0.00 | 0.00 | 0.00 | 52 | 1008.8 |
| 20260503191601 | 79 | 281 | 0.0 | 5.2 | 0.00 | 0.00 | 0.00 | 53 | 1008.9 |
| 20260503190047 | 77 | 342 | 1.7 | 5.2 | 0.00 | 0.00 | 0.00 | 53 | 1009.1 |
| 20260503184603 | 77 | 280 | 0.0 | 4.3 | 0.00 | 0.00 | 0.00 | 54 | 1009.3 |
| 20260503183045 | 75 | 330 | 0.9 | 5.2 | 0.00 | 0.00 | 0.00 | 56 | 1009.5 |
| 20260503181533 | 73 | 294 | 2.6 | 5.2 | 0.00 | 0.00 | 0.00 | 59 | 1009.6 |
| 20260503180033 | 72 | 32 | 2.6 | 6.1 | 0.00 | 0.00 | 0.00 | 62 | 1009.9 |
| 20260503174536 | 70 | 309 | 0.9 | 5.2 | 0.00 | 0.00 | 0.00 | 66 | 1009.9 |
| 20260503173024 | 69 | 333 | 1.7 | 4.3 | 0.00 | 0.00 | 0.00 | 67 | 1010.1 |
| 20260503171525 | 68 | 35 | 0.9 | 3.5 | 0.00 | 0.00 | 0.00 | 69 | 1010.3 |
| 20260503081553 | 56 | 287 | 0.0 | 0.0 | 0.00 | 0.02 | 0.00 | 90 | 1011.0 |
| 20260503071557 | 58 | 288 | 0.0 | 0.0 | 0.00 | 0.02 | 0.00 | 88 | 1011.1 |
| 20260503054535 | 61 | 156 | 0.0 | 0.0 | 0.00 | 0.02 | 0.00 | 83 | 1011.0 |
| 20260503053059 | 61 | 308 | 0.0 | 0.0 | 0.00 | 0.02 | 0.00 | 81 | 1010.8 |
| 20260503051558 | 62 | 308 | 0.0 | 0.0 | 0.00 | 0.02 | 0.00 | 81 | 1010.8 |
| 20260503044556 | 62 | 103 | 0.0 | 0.0 | 0.00 | 0.02 | 0.00 | 80 | 1011.2 |
| 20260503043058 | 63 | 103 | 0.0 | 0.9 | 0.00 | 0.02 | 0.00 | 79 | 1011.4 |
| 20260503041554 | 63 | 75 | 0.0 | 0.9 | 0.00 | 0.02 | 0.00 | 78 | 1011.2 |
| 20260503040054 | 63 | 54 | 0.0 | 0.0 | 0.00 | 0.02 | 0.00 | 78 | 1011.1 |
| 20260503034554 | 64 | 103 | 0.0 | 0.9 | 0.00 | 0.02 | 0.00 | 77 | 1011.1 |
| 20260503033058 | 65 | 139 | 0.0 | 0.0 | 0.00 | 0.02 | 0.00 | 74 | 1010.9 |
| 20260503031551 | 65 | 139 | 0.0 | 0.0 | 0.00 | 0.02 | 0.00 | 73 | 1011.0 |
| 20260503030049 | 65 | 239 | 0.0 | 4.3 | 0.00 | 0.02 | 0.00 | 73 | 1010.7 |
| 20260503024551 | 65 | 281 | 1.7 | 7.8 | 0.00 | 0.02 | 0.00 | 73 | 1010.9 |
| 20260503023049 | 66 | 215 | 2.6 | 9.6 | 0.00 | 0.02 | 0.00 | 71 | 1010.8 |
| 20260503021550 | 70 | 214 | 1.7 | 10.4 | 0.00 | 0.02 | 0.00 | 66 | 1010.6 |
| 20260503020046 | 72 | 179 | 0.0 | 4.3 | 0.00 | 0.02 | 0.00 | 63 | 1010.1 |
| 20260503014556 | 73 | 159 | 0.0 | 1.7 | 0.00 | 0.02 | 0.00 | 60 | 1009.8 |
| 20260503013045 | 73 | 140 | 0.0 | 1.7 | 0.00 | 0.02 | 0.00 | 60 | 1009.8 |
| 20260503011552 | 72 | 41 | 0.0 | 1.7 | 0.00 | 0.02 | 0.00 | 61 | 1009.7 |
| 20260503010037 | 72 | 269 | 0.0 | 2.6 | 0.00 | 0.02 | 0.00 | 61 | 1009.7 |
| 20260503004538 | 73 | 71 | 0.0 | 1.7 | 0.00 | 0.02 | 0.00 | 61 | 1009.8 |
| 20260503003039 | 72 | 278 | 0.0 | 2.6 | 0.00 | 0.02 | 0.00 | 61 | 1009.8 |
| 20260503001533 | 71 | 303 | 1.7 | 5.2 | 0.00 | 0.02 | 0.00 | 61 | 1009.8 |
| 20260503000028 | 71 | 326 | 0.0 | 3.5 | 0.00 | 0.02 | 0.00 | 61 | 1009.9 |
| 20260502234532 | 71 | 290 | 0.9 | 7.0 | 0.00 | 0.02 | 0.00 | 61 | 1009.9 |
| 20260502233024 | 71 | 256 | 1.7 | 5.2 | 0.00 | 0.02 | 0.00 | 61 | 1010.0 |
| 20260502231526 | 70 | 286 | 0.9 | 5.2 | 0.00 | 0.02 | 0.00 | 62 | 1010.2 |
| 20260502230016 | 70 | 300 | 1.7 | 5.2 | 0.00 | 0.02 | 0.00 | 64 | 1010.4 |
| 20260502224514 | 69 | 285 | 1.7 | 4.3 | 0.00 | 0.02 | 0.00 | 64 | 1010.6 |
| 20260502223012 | 67 | 296 | 1.7 | 8.7 | 0.00 | 0.02 | 0.00 | 65 | 1010.9 |
| 20260502221511 | 68 | 301 | 2.6 | 7.0 | 0.00 | 0.02 | 0.00 | 64 | 1011.2 |
| 20260502220108 | 68 | 34 | 0.0 | 7.0 | 0.00 | 0.02 | 0.00 | 64 | 1011.4 |
| 20260502214538 | 67 | 331 | 0.0 | 3.5 | 0.00 | 0.02 | 0.00 | 66 | 1011.5 |
| 20260502213042 | 65 | 90 | 0.0 | 5.2 | 0.00 | 0.02 | 0.00 | 68 | 1011.8 |
| 20260502211531 | 66 | 284 | 2.6 | 5.2 | 0.00 | 0.02 | 0.00 | 68 | 1012.0 |
| 20260502210031 | 64 | 271 | 2.6 | 5.2 | 0.00 | 0.02 | 0.00 | 69 | 1012.1 |
| 20260502210026 | 64 | 261 | 2.6 | 5.2 | 0.00 | 0.02 | 0.00 | 69 | 1012.1 |
| 20260502204523 | 65 | 241 | 0.0 | 5.2 | 0.00 | 0.02 | 0.00 | 68 | 1012.5 |
| 20260502203021 | 63 | 295 | 0.0 | 5.2 | 0.00 | 0.02 | 0.00 | 70 | 1012.7 |
| 20260502201559 | 62 | 328 | 0.9 | 6.1 | 0.00 | 0.02 | 0.00 | 72 | 1012.7 |
| 20260502200046 | 61 | 353 | 1.7 | 5.2 | 0.00 | 0.02 | 0.00 | 75 | 1013.0 |